Meath Environmental Platform

Observations for Trim Patrick St

Time AQI Temp °C Hum % Pres Pa CO μg/m³ H₂S μg/m³ NO μg/m³ NO₂ μg/m³ O₃ μg/m³ SO₂ μg/m³ PM1 μg/m³ PM2.5 μg/m³ PM10 μg/m³
Thursday 30 July 2026
19:46 3 22.2 41 68,780 0 5.17 1.52 8.85 66.62 4.59 2 6.96 7.66
19:45 3 22.2 42 68,804 0 7.28 1.51 14.11 69.75 4.89 2.86 8.5 9.35
19:44 3 22.2 42 68,835 0 8.74 1.49 14.31 73.42 5.3 2 7.7 8.47
19:43 3 22.1 42 68,847 0 8.87 1.49 11.13 73.11 5.33 2.86 8.48 9.33
19:42 3 22.1 42 68,833 0 10.17 1.5 17.28 72.26 5.28 2 7.71 8.48
19:41 3 22.1 42 68,843 0 9.43 1.5 12.78 78.84 5.7 2.86 8.5 9.35
19:40 3 22.1 42 68,827 0 5.91 1.5 9.69 73.49 4.74 2 6.94 7.63
19:39 3 22.1 42 68,839 0 6.15 1.5 9.35 73.22 4.8 2 6.92 7.62
19:38 3 22.1 42 68,823 0 8 1.49 11.79 67.41 5.42 2 7.69 8.46
19:37 3 22.1 42 68,827 0 11.17 1.48 15.17 68.39 5.4 2.86 7.67 8.44
19:36 3 22.1 42 68,833 0 14.4 1.48 26.03 61.09 5.87 2 6.89 7.58
19:35 3 22.2 42 68,817 0 14.42 1.48 23.7 68.79 6.36 2.86 8.44 9.29
19:34 3 22.2 42 68,823 0 13.94 1.48 25.97 65.77 5.54 2 7.67 8.44
19:33 3 22.2 42 68,804 0 14.29 1.49 23.13 66.96 5.98 2 7.69 8.46
19:32 3 22.2 42 68,808 0 13.71 1.5 18.14 73.18 6.19 2 6.92 7.62
19:31 3 22.3 42 68,811 0 12.99 1.5 25.3 66.86 6.07 2.86 8.49 9.34
19:30 3 22.3 42 68,815 0 13.25 1.51 13.86 72.91 6.13 2.86 7.72 8.5
19:29 3 22.4 42 68,794 0 13.49 1.51 21.23 69.06 6.15 2.86 8.51 9.36
19:27 3 22.4 41 68,817 0 14.31 1.52 23.33 69.01 5.99 2 7.76 8.53
19:26 3 22.4 41 68,821 0 13.41 1.52 19.31 73.14 6.09 2 6.96 7.66